OneWeb SL0186

operational
NORAD ID: 48229 Int'l Des: 2021-031 Owner: ONEWEBN Country: UK Constellation: oneweb
LEOCIRCULARPOLARONEWEB_TYPE

About OneWeb SL0186

Description loading...

Live Position

Loading 3D Globe...

Upcoming Passes

Altitude History

Altitude vs Time

uPlot chart will show altitude changes over time

Two-Line Element Set

1 48229U 21031V 26034.53043373 .00000211 00000-0 53413-3 0 9998
2 48229 87.9036 316.3383 0001752 82.3399 277.7930 13.14504267230829
Epoch: Feb 3, 2026 • Age: 11 hours

Current Status

Altitude 1220.7 km
Velocity 7.24 km/s
Sub-Earth Point -37.67°S, 172.03°W
Launch Date Apr 25, 2021
Age 4.7 years
Type internet

Technical Details

Classification Payload
Mass 148.00 kg
Dry Mass 140.00 kg
Total Mass 148.00 kg
Length 1.30 m
Diameter 1.00 m
Span 5.00 m
Shape Trapezoid+2 pan
Manufacturer ONEWUS
Bus Type ARROW
Phase Status In Orbit
Owner/State ONEWEBN/UK

Large Constellations

Loading constellations...